Location: Caltech
(34.1382°N, 118.1253°W)
Time: 09:01:30
(UTC-07:00)

Cosmos 2219 - Visible Passes

Search period start: 21 August 2014 00:00
Search period end: 31 August 2014 00:00
Orbit: 835 x 860 km, 71.1° (Epoch: 20 August)

Date Brightness Start Highest point End Pass type
(mag) Time Alt. Az. Time Alt. Az. Time Alt. Az.
21 Aug 6.0 00:59:21 10° NNE 00:59:59 11° NE 00:59:59 11° NE visible
21 Aug 5.4 02:40:41 10° NNW 02:41:51 17° NNW 02:41:51 17° NNW visible
22 Aug 6.0 00:46:09 10° NNE 00:46:17 10° NNE 00:46:17 10° NNE visible
22 Aug 5.6 02:27:20 10° NNW 02:28:10 15° NNW 02:28:10 15° NNW visible
23 Aug 5.7 02:14:00 10° NNW 02:14:33 13° NNW 02:14:33 13° NNW visible
24 Aug 5.9 02:00:40 10° NNW 02:01:00 12° NNW 02:01:00 12° NNW visible
25 Aug 6.0 01:47:20 10° NNW 01:47:30 11° NNW 01:47:30 11° NNW visible
26 Aug 6.0 01:34:00 10° NNW 01:34:04 10° NNW 01:34:04 10° NNW visible
30 Aug 6.1 00:40:41 10° NNW 00:40:41 10° NNW 00:40:41 10° NNW visible
